Location: Bacea
(45.9500°N, 22.6667°E)
Time: 10:23:56
(UTC+00:00)

Cosmos 2227 Rocket - Pass Details

Date: 16 October 2021
Orbit: 839 x 845 km, 71.0° (Epoch: 08 December)

Event Time Altitude Azimuth Distance (km) Brightness Sun altitude
Rises 15:59:15 0° 334° (NNW) 3,415 5.6 -3.9°
Reaches altitude 10° 16:01:43 10° 335° (NNW) 2,475 4.9 -4.3°
Maximum altitude 16:07:25 81° 63° (ENE) 861 2.2 -5.3°
Drops below altitude 10° 16:13:04 10° 151° (SSE) 2,456 4.4 -6.3°
Sets 16:15:30 0° 153° (SSE) 3,386 5.1 -6.7°
